Location: Home
(42.5358°N, 72.7383°W)
Time: 08:24:08
(UTC-05:00)

deb Explorer IX - Pass Details

Date: 03 December 2021
Orbit: 544 x 1082 km, 38.8° (Epoch: 19 January)

Event Time Altitude Azimuth Distance (km) Brightness Sun altitude
Rises 12:17:52 0° 261° (W) 2,850 ? 24.7°
Reaches altitude 10° 12:20:18 10° 256° (WSW) 1,891 ? 24.6°
Maximum altitude 12:24:27 51° 180° (S) 696 ? 24.5°
Drops below altitude 10° 12:28:24 10° 104° (ESE) 1,802 ? 24.3°
Sets 12:30:40 0° 99° (E) 2,701 ? 24.3°
